x

9075099 - De Tour Village, Mi (dtlm4) Weather Station

7:54am - Fri 26th May 2017 All times are CDT. -5 hours from GMT.

  • Wind
    7mph, 10mph gusts
  • Air Temp 57°f
  • Sea Pressure 1008.3mb
  • 9075099 - De Tour Village, Mi
  • 9075099 - De Tour Village, Mi

More Historic Weather Station data

Upgrade to MSW Pro to gain access to the past 30 days of data for over 8000 Wavebouys and Weather Stations around the globe.

Join Pro

Comparision Forecast

View Surf forecast
   
Fri 05/26 7:54am 7 10 mph 1008.3mb 57f
7:48am 7 10 mph 1008.3mb 56f
7:42am 6 9 mph 1008.4mb 57f
7:36am 5 8 mph 1008.3mb 57f
7:30am 3 10 mph 1008.2mb 57f
7:24am 6 9 mph 1008.2mb 56f
7:18am 3 7 mph 1008.1mb 56f
7:12am 6 9 mph 1008mb 56f
7:06am 7 10 mph 1008mb 56f
7:00am 8 11 mph 1008mb 56f
6:54am 8 10 mph 1008mb 56f
6:48am 5 8 mph 1007.9mb 56f
6:42am 6 10 mph 1007.7mb 56f
6:36am 6 10 mph 1007.6mb 55f
6:30am 6 9 mph 1007.6mb 56f
6:24am 6 8 mph 1007.5mb 55f
6:18am 6 10 mph 1007.5mb 55f
6:12am 6 9 mph 1007.3mb 54f
6:06am 7 10 mph 1007.2mb 54f
6:00am 6 10 mph 1007.1mb 53f
5:54am 7 11 mph 1007.1mb 53f
5:48am 6 10 mph 1007mb 53f
5:42am 6 11 mph 1006.9mb 52f
5:36am 7 10 mph 1006.9mb 52f
5:30am 9 13 mph 1006.9mb 53f
5:24am 7 10 mph 1006.8mb 53f
5:18am 7 10 mph 1006.8mb 53f
5:12am 6 9 mph 1006.7mb 53f
5:06am 6 8 mph 1006.7mb 53f
5:00am 7 11 mph 1006.7mb 53f
4:54am 7 10 mph 1006.7mb 54f
4:48am 6 11 mph 1006.7mb 54f
4:42am 7 13 mph 1006.6mb 54f
4:36am 6 10 mph 1006.5mb 54f
4:30am 5 10 mph 1006.5mb 54f
4:24am 6 9 mph 1006.5mb 54f
4:18am 6 8 mph 1006.5mb 54f
4:12am 6 9 mph 1006.4mb 54f
4:06am 6 10 mph 1006.3mb 55f
4:00am 7 10 mph 1006.3mb 55f
3:48am 6 10 mph 1006.2mb 54f
3:42am 7 9 mph 1006.2mb 54f
3:36am 8 10 mph 1006.2mb 54f
3:30am 6 11 mph 1006.2mb 54f
3:24am 8 10 mph 1006.2mb 54f
3:18am 7 11 mph 1006.1mb 54f
3:12am 7 11 mph 1006.1mb 54f
3:06am 7 10 mph 1006mb 54f
3:00am 8 13 mph 1006mb 54f
2:54am 9 11 mph 1005.9mb 54f
2:48am 9 13 mph 1005.9mb 54f
2:42am 7 10 mph 1005.8mb 54f
2:36am 6 9 mph 1005.8mb 54f
2:30am 6 10 mph 1005.8mb 54f
2:24am 6 9 mph 1005.8mb 54f
2:18am 7 10 mph 1005.7mb 54f
2:12am 7 10 mph 1005.8mb 55f
2:06am 3 9 mph 1005.8mb 55f
2:00am 6 10 mph 1005.8mb 55f
1:48am 8 11 mph 1005.8mb 55f
1:42am 7 13 mph 1005.7mb 55f
1:36am 7 13 mph 1005.7mb 56f
1:30am 8 11 mph 1005.7mb 56f
1:24am 7 11 mph 1005.7mb 56f
1:18am 9 13 mph 1005.6mb 56f
1:12am 8 13 mph 1005.5mb 56f
1:06am 8 11 mph 1005.5mb 55f
1:00am 8 11 mph 1005.5mb 55f
12:54am 9 11 mph 1005.6mb 55f
12:48am 9 13 mph 1005.6mb 55f
12:42am 10 13 mph 1005.6mb 55f
12:36am 9 13 mph 1005.6mb 55f
12:30am 9 13 mph 1005.6mb 55f
12:24am 9 11 mph 1005.6mb 54f
12:18am 9 10 mph 1005.5mb 54f
12:12am 8 10 mph 1005.5mb 54f
12:06am 8 11 mph 1005.6mb 54f
12:00am 11 11 mph 1005.7mb 54f
Thu 05/25 11:54pm 10 11 mph 1005.7mb 54f
11:48pm 10 11 mph 1005.7mb 54f
11:42pm 10 13 mph 1005.7mb 54f
11:36pm 11 13 mph 1005.6mb 54f
11:30pm 10 14 mph 1005.6mb 53f
11:24pm 13 14 mph 1005.6mb 54f
11:18pm 10 11 mph 1005.6mb 53f
11:12pm 11 11 mph 1005.6mb 54f
11:06pm 9 13 mph 1005.6mb 53f
11:00pm 10 11 mph 1005.5mb 53f
10:54pm 10 14 mph 1005.5mb 53f
10:48pm 11 14 mph 1005.5mb 54f
10:42pm 11 13 mph 1005.5mb 54f
10:36pm 11 14 mph 1005.4mb 53f
10:30pm 13 14 mph 1005.4mb 54f
10:24pm 13 14 mph 1005.5mb 54f
10:18pm 13 14 mph 1005.5mb 54f
10:12pm 13 15 mph 1005.5mb 54f
10:06pm 14 16 mph 1005.4mb 55f
10:00pm 13 16 mph 1005.4mb 56f
9:54pm 14 20 mph 1005.3mb 56f
9:48pm 14 17 mph 1005.3mb 55f
9:42pm 13 14 mph 1005.2mb 54f
9:36pm 11 15 mph 1005.2mb 54f
9:30pm 14 16 mph 1005.1mb 54f
9:24pm 10 14 mph 1005.2mb 54f
9:18pm 7 9 mph 1005.2mb 53f
9:12pm 9 10 mph 1005.1mb 54f
9:06pm 9 10 mph 1005mb 53f
9:00pm 7 10 mph 1005mb 53f
8:54pm 9 10 mph 1005mb 53f
8:48pm 7 8 mph 1005mb 53f
8:42pm 7 9 mph 1004.9mb 53f
8:36pm 8 10 mph 1004.8mb 53f
8:30pm 8 9 mph 1004.8mb 52f
8:24pm 9 10 mph 1004.7mb 53f
8:18pm 8 10 mph 1004.6mb 53f
8:12pm 8 8 mph 1004.6mb 53f
8:06pm 8 9 mph 1004.6mb 53f
8:00pm 8 9 mph 1004.5mb 53f
7:54pm 8 9 mph 1004.5mb 53f
7:48pm 7 8 mph 1004.4mb 53f
7:42pm 7 9 mph 1004.4mb 53f
7:36pm 6 8 mph 1004.4mb 53f
7:30pm 9 11 mph 1004.3mb 53f
7:24pm 10 11 mph 1004.3mb 53f
7:18pm 5 8 mph 1004.3mb 53f
7:12pm 6 8 mph 1004.2mb 53f
7:06pm 8 10 mph 1004.2mb 53f
7:00pm 8 10 mph 1004.1mb 53f
6:54pm 8 9 mph 1004mb 53f
6:48pm 9 10 mph 1004.1mb 53f
6:42pm 9 10 mph 1004.1mb 53f
6:36pm 9 9 mph 1004mb 53f
6:30pm 8 9 mph 1003.9mb 53f
6:24pm 7 9 mph 1003.9mb 53f
6:18pm 8 10 mph 1003.9mb 54f
6:12pm 9 13 mph 1003.9mb 53f
6:06pm 11 14 mph 1003.9mb 53f
6:00pm 10 13 mph 1003.9mb 53f
5:48pm 8 11 mph 1003.8mb 53f
5:42pm 10 11 mph 1003.9mb 53f
5:36pm 8 10 mph 1003.8mb 53f
5:30pm 8 9 mph 1003.8mb 53f
5:24pm 8 10 mph 1003.8mb 53f
5:18pm 9 13 mph 1003.7mb 53f
5:12pm 11 13 mph 1003.8mb 53f
5:06pm 11 14 mph 1003.8mb 53f
5:00pm 14 14 mph 1003.8mb 53f
4:48pm 13 13 mph 1003.8mb 53f
4:42pm 10 11 mph 1003.7mb 53f
4:36pm 10 13 mph 1003.7mb 53f
4:30pm 11 13 mph 1003.6mb 54f
4:24pm 11 13 mph 1003.6mb 53f
4:18pm 11 14 mph 1003.5mb 54f
4:12pm 13 14 mph 1003.5mb 53f
4:06pm 11 13 mph 1003.5mb 53f
4:00pm 10 11 mph 1003.4mb 53f
3:54pm 9 10 mph 1003.4mb 53f
3:48pm 10 11 mph 1003.4mb 53f
3:42pm 10 11 mph 1003.4mb 53f
3:36pm 10 11 mph 1003.4mb 53f
3:30pm 10 11 mph 1003.4mb 53f
3:24pm 10 11 mph 1003.4mb 53f
3:06pm 9 10 mph 1003.3mb 53f
3:00pm 10 11 mph 1003.2mb 53f
2:54pm 10 11 mph 1003.2mb 53f
2:48pm 10 11 mph 1003.3mb 53f
2:42pm 9 11 mph 1003.4mb 53f
2:36pm 10 13 mph 1003.3mb 53f
2:30pm 10 13 mph 1003.4mb 53f
2:24pm 9 14 mph 1003.4mb 53f
2:18pm 9 14 mph 1003.4mb 54f
2:12pm 9 13 mph 1003.4mb 54f
2:06pm 8 13 mph 1003.3mb 54f
2:00pm 10 13 mph 1003.4mb 55f
1:54pm 10 15 mph 1003.5mb 55f
1:48pm 10 15 mph 1003.5mb 55f
1:42pm 11 14 mph 1003.5mb 55f
1:36pm 13 18 mph 1003.5mb 55f
1:30pm 13 15 mph 1003.4mb 55f
1:24pm 14 16 mph 1003.4mb 55f
1:18pm 14 20 mph 1003.5mb 55f
1:12pm 14 18 mph 1003.5mb 55f
1:06pm 13 16 mph 1003.5mb 55f
1:00pm 14 16 mph 1003.5mb 55f
12:54pm 11 18 mph 1003.5mb 55f
12:48pm 15 21 mph 1003.5mb 55f
12:42pm 18 24 mph 1003.6mb 56f
12:36pm 18 22 mph 1003.6mb 56f
12:30pm 16 22 mph 1003.4mb 57f
12:24pm 18 23 mph 1003.3mb 58f
12:18pm 17 23 mph 1003.3mb 59f
12:12pm 13 15 mph 1003.2mb 58f
12:06pm 13 15 mph 1003.2mb 57f
12:00pm 13 17 mph 1003.2mb 58f
11:54am 11 20 mph 1003.3mb 56f
11:48am 11 14 mph 1003.2mb 55f
11:42am 11 13 mph 1003.1mb 55f
11:36am 11 14 mph 1003.1mb 54f
11:30am 11 14 mph 1003.1mb 54f
11:24am 13 13 mph 1003.2mb 54f
11:18am 11 13 mph 1003.2mb 54f
11:12am 11 14 mph 1003.2mb 54f
11:06am 13 15 mph 1003.2mb 54f
11:00am 13 14 mph 1003.2mb 54f
10:54am 10 11 mph 1003.3mb 53f
10:48am 9 11 mph 1003.2mb 53f
10:42am 9 10 mph 1003.4mb 54f
10:36am 8 11 mph 1003.5mb 53f
10:30am 8 10 mph 1003.5mb 53f
10:24am 8 9 mph 1003.5mb 53f
10:18am 10 10 mph 1003.6mb 53f
10:12am 9 11 mph 1003.6mb 53f
10:06am 10 11 mph 1003.6mb 54f
10:00am 10 11 mph 1003.6mb 54f
9:54am 10 11 mph 1003.6mb 53f
9:48am 9 11 mph 1003.7mb 53f
9:42am 10 11 mph 1003.8mb 53f
9:36am 10 13 mph 1003.7mb 54f
9:30am 10 13 mph 1003.7mb 53f
9:24am 13 15 mph 1003.7mb 53f
9:18am 14 16 mph 1003.6mb 53f
9:12am 15 16 mph 1003.6mb 53f
9:06am 15 16 mph 1003.7mb 53f
9:00am 15 16 mph 1003.6mb 54f
8:54am 15 17 mph 1003.7mb 54f
8:48am 15 18 mph 1003.7mb 53f
8:42am 16 18 mph 1003.6mb 53f
8:36am 15 16 mph 1003.6mb 53f
8:30am 13 14 mph 1003.8mb 53f
8:24am 9 11 mph 1003.9mb 52f
8:18am 10 13 mph 1003.9mb 52f
8:12am 9 11 mph 1003.9mb 52f
8:06am 9 10 mph 1004.1mb 52f
8:00am 9 11 mph 1004.1mb 52f
7:54am 10 14 mph 1004.2mb 52f
7:48am 9 13 mph 1004.1mb 52f
7:42am 10 14 mph 1004.1mb 52f
7:36am 11 14 mph 1004mb 52f
7:30am 9 11 mph 1004mb 52f
7:24am 8 9 mph 1004mb 52f
7:18am 7 9 mph 1004mb 52f
7:12am 7 8 mph 1004mb 52f
7:06am 8 9 mph 1004mb 52f
7:00am 6 8 mph 1004.1mb 52f
6:54am 7 9 mph 1004.1mb 52f
6:48am 7 9 mph 1004mb 52f
6:42am 7 8 mph 1004.1mb 52f
6:36am 7 10 mph 1004mb 52f
6:30am 9 11 mph 1004mb 52f
6:24am 10 14 mph 1004mb 53f
6:18am 13 15 mph 1004mb 52f
6:12am 13 14 mph 1004mb 52f
6:06am 11 13 mph 1003.9mb 52f
6:00am 9 11 mph 1003.9mb 52f
5:54am 8 10 mph 1004mb 52f
5:48am 9 11 mph 1004mb 52f
5:42am 9 13 mph 1004mb 53f
5:36am 11 13 mph 1004mb 53f
5:30am 11 15 mph 1004mb 53f
5:24am 10 11 mph 1004mb 52f
5:18am 10 11 mph 1003.9mb 53f
5:12am 10 13 mph 1003.9mb 53f
5:06am 11 13 mph 1003.9mb 53f
5:00am 10 11 mph 1003.9mb 53f
4:54am 8 10 mph 1003.9mb 53f
4:48am 7 8 mph 1003.9mb 53f
4:42am 7 9 mph 1003.9mb 52f
4:36am 8 8 mph 1003.9mb 53f
4:30am 9 10 mph 1003.9mb 53f
4:24am 6 9 mph 1003.9mb 52f
4:18am 8 10 mph 1003.9mb 53f
4:12am 9 13 mph 1003.9mb 53f
4:06am 9 13 mph 1003.9mb 53f
4:00am 9 13 mph 1003.9mb 53f
3:54am 10 14 mph 1003.9mb 53f
3:48am 11 14 mph 1003.9mb 53f
3:42am 10 14 mph 1003.9mb 53f
3:36am 10 13 mph 1003.9mb 53f
3:30am 11 14 mph 1003.9mb 53f
3:24am 9 10 mph 1003.9mb 53f
3:18am 9 11 mph 1004mb 53f
3:12am 10 13 mph 1004mb 53f
3:06am 10 13 mph 1004.1mb 53f
3:00am 11 14 mph 1004.1mb 54f
2:54am 11 13 mph 1004.1mb 54f
2:48am 10 13 mph 1004.1mb 54f
2:42am 11 14 mph 1004.1mb 54f
2:36am 11 14 mph 1004mb 54f
2:30am 9 10 mph 1004mb 53f
2:24am 10 11 mph 1004.1mb 53f
2:18am 10 13 mph 1004mb 53f
2:12am 11 13 mph 1004.1mb 54f
2:06am 10 13 mph 1004.1mb 54f
2:00am 10 13 mph 1004mb 53f
1:54am 9 13 mph 1004.1mb 53f
1:48am 13 17 mph 1004.1mb 54f
1:42am 9 11 mph 1004.1mb 55f
1:36am 9 10 mph 1004.2mb 54f
1:30am 8 11 mph 1004.2mb 53f
1:24am 9 14 mph 1004.3mb 53f
1:18am 13 14 mph 1004.3mb 53f
1:12am 10 11 mph 1004.3mb 53f
1:06am 10 14 mph 1004.4mb 53f
1:00am 11 14 mph 1004.5mb 53f
12:54am 11 13 mph 1004.3mb 53f
12:48am 10 13 mph 1004.4mb 53f
12:42am 10 11 mph 1004.5mb 53f
12:36am 9 11 mph 1004.6mb 53f
12:30am 9 10 mph 1004.6mb 53f
12:24am 8 10 mph 1004.7mb 53f
12:18am 9 11 mph 1004.7mb 54f
12:12am 9 14 mph 1004.7mb 54f
12:06am 11 14 mph 1004.5mb 54f
12:00am 13 14 mph 1004.6mb 54f
Wed 05/24 11:54pm 11 13 mph 1004.7mb 54f
11:48pm 6 7 mph 1004.9mb 53f
11:42pm 7 9 mph 1005mb 53f
11:36pm 7 9 mph 1005.1mb 53f
11:30pm 8 10 mph 1005mb 53f
11:24pm 7 8 mph 1005mb 53f
11:18pm 8 11 mph 1005mb 54f
11:12pm 10 11 mph 1004.9mb 54f
11:06pm 9 9 mph 1004.9mb 53f
11:00pm 8 9 mph 1004.8mb 53f
10:54pm 8 9 mph 1004.9mb 53f
10:48pm 7 8 mph 1004.9mb 53f
10:42pm 7 8 mph 1005mb 53f
10:36pm 6 8 mph 1005mb 53f
10:30pm 8 10 mph 1005mb 53f
10:24pm 10 11 mph 1004.9mb 53f
10:18pm 10 10 mph 1004.9mb 53f
10:12pm 10 11 mph 1005mb 54f
10:06pm 10 11 mph 1005mb 55f
10:00pm 9 10 mph 1005mb 54f
9:54pm 8 9 mph 1005.1mb 53f
9:48pm 8 9 mph 1005.1mb 54f
9:42pm 7 8 mph 1005.2mb 54f
9:36pm 6 7 mph 1005.2mb 53f
9:30pm 7 7 mph 1005.2mb 53f
9:24pm 6 7 mph 1005.2mb 53f
9:18pm 6 6 mph 1005.2mb 53f
9:12pm 6 6 mph 1005.2mb 52f
9:06pm 3 5 mph 1005.2mb 52f
9:00pm 3 5 mph 1005.1mb 52f
8:54pm 6 7 mph 1005.1mb 53f
8:48pm 7 7 mph 1005.1mb 53f
8:42pm 7 9 mph 1005.1mb 54f
8:36pm 7 8 mph 1005.1mb 55f
8:30pm 7 9 mph 1005.1mb 54f
8:24pm 7 8 mph 1005.1mb 54f
8:18pm 7 7 mph 1005.2mb 54f
8:12pm 6 7 mph 1005.1mb 53f
8:06pm 6 7 mph 1005.2mb 53f
8:00pm 6 7 mph 1005.2mb 54f
7:54pm 7 10 mph 1005.2mb 54f
7:48pm 10 11 mph 1005.1mb 55f
7:42pm 10 11 mph 1005mb 55f
7:36pm 10 11 mph 1005mb 55f
7:30pm 8 10 mph 1005mb 54f
7:24pm 9 9 mph 1005.1mb 54f
7:18pm 8 8 mph 1005.2mb 54f
7:12pm 8 10 mph 1005.2mb 55f
7:06pm 9 10 mph 1005.2mb 55f
7:00pm 9 10 mph 1005.2mb 54f
6:54pm 7 8 mph 1005.2mb 54f
6:48pm 6 7 mph 1005.1mb 53f
6:42pm 5 6 mph 1005.1mb 53f
6:36pm 6 6 mph 1005mb 53f
6:30pm 6 7 mph 1005mb 53f
6:24pm 6 7 mph 1005mb 53f
6:18pm 5 6 mph 1005.1mb 53f
6:12pm 5 6 mph 1005.1mb 54f
6:06pm 5 6 mph 1005.2mb 54f
6:00pm 6 6 mph 1005.1mb 54f
5:54pm 6 8 mph 1005mb 54f
5:48pm 5 6 mph 1005.1mb 54f
5:42pm 5 6 mph 1005.1mb 54f
5:36pm 5 6 mph 1005.1mb 54f
5:30pm 5 6 mph 1005.1mb 54f
5:24pm 3 6 mph 1005.1mb 53f
5:18pm 6 8 mph 1005.1mb 54f
5:12pm 8 10 mph 1005.2mb 54f
5:06pm 9 11 mph 1005.2mb 55f
5:00pm 10 11 mph 1005.2mb 55f
4:54pm 9 10 mph 1005.1mb 55f
4:48pm 8 9 mph 1005.1mb 54f
4:42pm 7 8 mph 1005.1mb 54f
4:36pm 7 8 mph 1005.1mb 53f
4:30pm 8 9 mph 1005.1mb 53f
4:24pm 9 10 mph 1005.1mb 53f
4:18pm 10 11 mph 1005.1mb 53f
4:12pm 8 9 mph 1005.1mb 53f
4:06pm 8 9 mph 1005.2mb 53f
4:00pm 8 9 mph 1005.2mb 53f
3:54pm 8 9 mph 1005.3mb 53f
3:48pm 8 9 mph 1005.3mb 53f
3:42pm 7 9 mph 1005.4mb 53f
3:36pm 7 8 mph 1005.5mb 53f
3:30pm 7 8 mph 1005.6mb 53f
3:24pm 7 8 mph 1005.6mb 53f
3:18pm 7 8 mph 1005.6mb 52f
3:12pm 7 8 mph 1005.6mb 52f
3:06pm 8 8 mph 1005.5mb 52f
3:00pm 7 7 mph 1005.6mb 52f
2:54pm 7 8 mph 1005.7mb 52f
2:48pm 8 9 mph 1005.7mb 52f
2:42pm 8 8 mph 1005.8mb 52f
2:36pm 7 8 mph 1006mb 52f
2:30pm 8 10 mph 1006.1mb 52f
2:24pm 10 11 mph 1005.8mb 52f
2:18pm 9 11 mph 1005.9mb 52f
2:12pm 9 10 mph 1006.1mb 52f
2:06pm 7 8 mph 1006.3mb 52f
2:00pm 3 6 mph 1006.5mb 52f
1:54pm 6 10 mph 1006.4mb 52f
1:48pm 10 10 mph 1005.8mb 51f
1:42pm 9 9 mph 1005.8mb 51f
1:36pm 7 8 mph 1006mb 51f
1:30pm 7 9 mph 1005.9mb 51f
1:24pm 7 9 mph 1005.9mb 51f
1:18pm 8 9 mph 1005.8mb 51f
1:12pm 8 10 mph 1005.9mb 51f
1:06pm 8 8 mph 1006mb 51f
12:48pm 11 14 mph 1005.8mb 51f
12:42pm 13 14 mph 1005.7mb 50f
12:36pm 11 13 mph 1005.9mb 50f
12:30pm 9 11 mph 1006.1mb 50f
12:24pm 9 11 mph 1006.1mb 50f
12:18pm 10 11 mph 1006.1mb 50f
12:12pm 9 10 mph 1006.3mb 50f
12:06pm 8 9 mph 1006.4mb 50f
12:00pm 8 9 mph 1006.5mb 50f
11:54am 8 10 mph 1006.5mb 50f
11:48am 8 10 mph 1006.6mb 50f
11:42am 8 10 mph 1006.6mb 50f
11:36am 9 10 mph 1006.6mb 50f
11:30am 9 10 mph 1006.6mb 50f
11:24am 8 10 mph 1006.7mb 50f
11:18am 7 9 mph 1006.9mb 50f
11:12am 8 10 mph 1006.8mb 50f
11:06am 9 11 mph 1006.8mb 50f
11:00am 9 11 mph 1006.8mb 50f
10:54am 10 11 mph 1006.7mb 50f
10:48am 9 11 mph 1006.8mb 50f
10:42am 10 11 mph 1006.8mb 50f
10:36am 9 11 mph 1006.8mb 50f
10:30am 10 11 mph 1006.7mb 50f
10:24am 10 11 mph 1006.8mb 50f
10:18am 9 10 mph 1006.7mb 50f
10:12am 10 11 mph 1006.8mb 50f
10:06am 8 10 mph 1006.8mb 50f
10:00am 8 13 mph 1006.8mb 51f
9:54am 9 14 mph 1006.7mb 51f
9:48am 11 14 mph 1006.8mb 51f
9:42am 11 15 mph 1006.8mb 51f
9:36am 13 15 mph 1006.7mb 50f
9:30am 11 14 mph 1006.7mb 50f
9:24am 11 14 mph 1006.8mb 50f
9:18am 10 13 mph 1006.8mb 50f
9:12am 10 14 mph 1006.9mb 50f
9:06am 10 11 mph 1007mb 50f
9:00am 10 14 mph 1007mb 50f
8:54am 9 11 mph 1007mb 50f
8:48am 9 11 mph 1007.1mb 50f
8:42am 9 15 mph 1007.1mb 50f
8:36am 8 10 mph 1007.1mb 50f
8:30am 7 10 mph 1007.1mb 50f
8:24am 8 11 mph 1007.1mb 50f
8:18am 10 11 mph 1007mb 50f
8:12am 9 13 mph 1006.9mb 50f
8:06am 10 13 mph 1007mb 50f
8:00am 8 10 mph 1007mb 50f
7:54am 8 10 mph 1007mb 50f
7:48am 7 11 mph 1006.9mb 50f
7:42am 8 14 mph 1006.9mb 50f
7:36am 9 14 mph 1006.7mb 50f
7:30am 11 17 mph 1006.6mb 50f
7:24am 10 14 mph 1006.5mb 50f
7:18am 10 15 mph 1006.5mb 50f
7:12am 13 16 mph 1006.4mb 50f
7:06am 13 15 mph 1006.4mb 50f
7:00am 11 15 mph 1006.5mb 50f
6:54am 9 13 mph 1006.5mb 50f
6:48am 8 11 mph 1006.7mb 50f
6:42am 8 13 mph 1006.6mb 50f
6:36am 9 13 mph 1006.7mb 50f
6:30am 9 10 mph 1006.8mb 50f
6:24am 8 10 mph 1006.8mb 50f
6:18am 8 13 mph 1006.8mb 50f
6:12am 10 15 mph 1006.7mb 50f
6:06am 13 15 mph 1006.5mb 50f
6:00am 11 16 mph 1006.5mb 50f
5:54am 15 18 mph 1006.3mb 50f
5:48am 15 17 mph 1006.2mb 50f
5:42am 15 16 mph 1006.3mb 50f
5:36am 11 14 mph 1006.3mb 50f
5:30am 10 14 mph 1006.3mb 50f
5:24am 9 11 mph 1006.4mb 50f
5:18am 9 10 mph 1006.3mb 50f
5:12am 8 10 mph 1006.3mb 50f
5:06am 9 10 mph 1006.3mb 50f
5:00am 8 10 mph 1006.4mb 50f
4:54am 7 10 mph 1006.4mb 51f
4:48am 8 10 mph 1006.4mb 51f
4:42am 8 9 mph 1006.4mb 51f
4:36am 8 10 mph 1006.4mb 51f
4:30am 7 11 mph 1006.4mb 51f
4:24am 10 13 mph 1006.4mb 51f
4:18am 9 11 mph 1006.3mb 51f
4:12am 7 10 mph 1006.3mb 51f
4:06am 8 13 mph 1006.3mb 51f
4:00am 9 13 mph 1006.3mb 51f
3:54am 10 11 mph 1006.2mb 51f
3:48am 10 13 mph 1006.2mb 51f
3:42am 10 13 mph 1006.3mb 51f
3:36am 8 11 mph 1006.2mb 51f
3:30am 9 13 mph 1006.2mb 51f
3:24am 9 11 mph 1006.3mb 51f
3:18am 6 9 mph 1006.3mb 51f
3:12am 8 10 mph 1006.3mb 51f
3:06am 7 9 mph 1006.3mb 51f
3:00am 8 10 mph 1006.2mb 51f
2:54am 10 10 mph 1006.2mb 51f
2:48am 9 10 mph 1006.1mb 51f
2:42am 9 9 mph 1006.1mb 51f
2:36am 8 9 mph 1006.1mb 51f
2:30am 8 9 mph 1006.2mb 50f
2:24am 7 8 mph 1006.2mb 50f
2:18am 7 8 mph 1006.2mb 50f
2:12am 6 7 mph 1006.2mb 50f
2:06am 6 7 mph 1006.2mb 50f
2:00am 6 7 mph 1006.2mb 50f
1:54am 6 8 mph 1006.2mb 50f
1:48am 8 8 mph 1006.3mb -
1:42am 8 8 mph 1006.4mb -
1:36am 7 8 mph 1006.4mb -
1:30am 7 8 mph 1006.4mb 50f
1:24am 7 8 mph 1006.5mb 50f
1:18am 6 6 mph 1006.5mb 51f
1:12am 6 7 mph 1006.5mb 51f
1:06am 7 9 mph 1006.5mb 51f
1:00am 7 8 mph 1006.5mb 50f
12:54am 5 6 mph 1006.5mb 50f
12:48am 6 8 mph 1006.6mb 50f
12:42am 8 8 mph 1006.7mb 50f
12:36am 3 7 mph 1006.7mb 50f
12:30am 6 7 mph 1006.8mb 50f
12:24am 3 6 mph 1006.8mb 49f
12:18am 1 3 mph 1006.9mb 50f
12:12am  -  0 mph 1006.8mb 50f
12:06am  -  0 mph 1006.9mb 50f
12:00am  -  1 mph 1006.9mb 49f
Tue 05/23 11:54pm  -  1 mph 1007mb 50f
11:48pm  -  0 mph 1007.1mb 50f
11:42pm  -  0 mph 1007.1mb 50f
11:36pm  -  0 mph 1007.2mb 50f
11:30pm  -  0 mph 1007.3mb 50f
11:24pm  -  1 mph 1007.4mb 50f
11:18pm  -  1 mph 1007.4mb 50f
11:12pm  -  2 mph 1007.4mb 49f
11:06pm 1 1 mph 1007.4mb 50f
11:00pm 1 1 mph 1007.4mb 50f
10:54pm  -  3 mph 1007.4mb 50f
10:48pm 2 3 mph 1007.5mb 50f
10:42pm 3 3 mph 1007.6mb 50f
10:36pm 2 5 mph 1007.6mb 50f
10:30pm 2 3 mph 1007.6mb 49f
10:24pm 3 5 mph 1007.6mb 49f
10:18pm 3 5 mph 1007.6mb 49f
10:12pm 3 5 mph 1007.6mb 49f
10:06pm 2 3 mph 1007.6mb 50f
10:00pm  -  5 mph 1007.6mb 49f
9:54pm 3 5 mph 1007.6mb 50f
9:48pm 2 3 mph 1007.6mb 49f
9:42pm 2 5 mph 1007.6mb 49f
9:36pm 3 5 mph 1007.7mb 49f
9:30pm 2 3 mph 1007.7mb 49f
9:24pm 2 3 mph 1007.7mb 49f
9:18pm 3 5 mph 1007.7mb 49f
9:12pm 5 6 mph 1007.8mb 49f
9:06pm 1 3 mph 1007.9mb 50f
9:00pm 1 3 mph 1007.8mb 49f
8:54pm 3 5 mph 1007.9mb 49f
8:48pm 1 6 mph 1007.9mb 49f
8:42pm 3 5 mph 1007.9mb 49f
8:36pm 3 5 mph 1008mb 50f
8:30pm 3 5 mph 1008mb 50f
8:24pm 3 6 mph 1008mb 50f
8:18pm 2 5 mph 1007.8mb 50f
8:12pm 2 5 mph 1007.7mb 50f
8:06pm 3 6 mph 1007.8mb 51f
8:00pm 3 5 mph 1007.8mb 51f
7:54pm 3 5 mph 1007.7mb 51f
7:48pm 2 5 mph 1007.8mb 51f
7:42pm 5 6 mph 1007.8mb 51f
7:36pm 3 6 mph 1007.8mb 51f
7:30pm 3 6 mph 1007.8mb 51f
7:24pm 5 6 mph 1007.7mb 51f
7:18pm 3 6 mph 1007.6mb 51f
7:12pm 3 5 mph 1007.7mb 52f
7:06pm 3 5 mph 1007.7mb 52f
7:00pm 3 5 mph 1007.7mb 52f
6:54pm 3 6 mph 1007.7mb 52f
6:48pm 5 6 mph 1007.8mb -
6:42pm 3 5 mph 1007.8mb -
6:36pm 3 6 mph 1007.8mb -
6:30pm 3 7 mph 1007.8mb 52f
6:24pm 6 7 mph 1007.7mb 52f
6:18pm 5 7 mph 1007.7mb 52f
6:12pm 5 8 mph 1007.7mb 52f
6:06pm 5 7 mph 1007.7mb 52f
6:00pm 5 8 mph 1007.8mb 52f
5:54pm 6 8 mph 1007.9mb 51f
5:48pm 5 9 mph 1007.8mb 51f
5:42pm 9 14 mph 1007.8mb 50f
5:36pm 11 14 mph 1007.7mb 49f
5:30pm 13 15 mph 1007.7mb 50f
5:24pm 6 13 mph 1007.6mb 52f
5:18pm 6 9 mph 1007.5mb 52f
5:12pm 7 8 mph 1007.4mb 52f
5:06pm 7 8 mph 1007.3mb 52f
5:00pm 6 8 mph 1007.3mb 52f
4:54pm 7 9 mph 1007.3mb 51f
4:48pm 7 8 mph 1007.4mb 51f
4:42pm 6 7 mph 1007.4mb 52f
4:36pm 6 11 mph 1007.5mb 51f
4:30pm 9 10 mph 1007.6mb 50f
4:24pm 9 10 mph 1007.5mb 50f
4:18pm 9 10 mph 1007.5mb 51f
4:12pm 9 11 mph 1007.5mb 51f
4:06pm 5 5 mph 1007.6mb 55f
4:00pm 5 6 mph 1007.7mb 55f
3:54pm 6 6 mph 1007.7mb 55f
3:48pm 6 6 mph 1007.7mb 54f
3:42pm 2 5 mph 1007.8mb 55f
3:36pm 1 3 mph 1007.8mb 55f
3:30pm 2 5 mph 1007.8mb 55f
3:24pm 1 2 mph 1008mb 55f
3:18pm  -  2 mph 1008.2mb 55f
3:12pm 1 3 mph 1008.2mb 54f
3:06pm  -  2 mph 1008.2mb 54f
3:00pm  -  2 mph 1008.2mb 54f
2:54pm 3 5 mph 1008.2mb 53f
2:48pm 2 3 mph 1008.2mb 53f
2:42pm 2 3 mph 1008.3mb 54f
2:36pm 1 3 mph 1008.4mb 54f
2:30pm 3 7 mph 1008.4mb 53f
2:24pm 3 6 mph 1008.5mb 53f
2:18pm 2 5 mph 1008.4mb 54f
2:12pm 3 5 mph 1008.4mb 53f
2:06pm 3 5 mph 1008.4mb 53f
2:00pm 2 2 mph 1008.5mb 54f
1:54pm 1 2 mph 1008.6mb 53f
1:48pm 1 3 mph 1008.7mb 53f
1:42pm 2 5 mph 1008.7mb 53f
1:36pm 3 5 mph 1008.7mb 52f
1:30pm 3 5 mph 1008.9mb 52f
1:24pm 3 5 mph 1009.1mb 53f
1:18pm 3 3 mph 1009.1mb 52f
1:12pm  -  1 mph 1009mb 52f
1:06pm 1 5 mph 1009mb 53f
1:00pm 2 3 mph 1009.1mb 52f
12:54pm 2 3 mph 1009.2mb 52f
12:48pm 2 5 mph 1009.3mb 52f
12:42pm 3 5 mph 1009.2mb 52f
12:36pm 3 3 mph 1009.4mb 51f
12:30pm 3 3 mph 1009.5mb 50f
12:24pm 3 5 mph 1009.4mb 50f
12:18pm 2 2 mph 1009.5mb 50f
12:12pm 2 3 mph 1009.5mb 49f
12:06pm 5 6 mph 1009.5mb 49f
12:00pm 6 6 mph 1009.6mb 49f
11:54am 5 6 mph 1009.7mb 48f
11:48am 5 5 mph 1009.8mb 48f
11:42am 3 5 mph 1009.8mb 48f
11:36am 3 5 mph 1009.9mb 48f
11:30am 5 5 mph 1009.9mb 48f
11:24am 5 6 mph 1009.9mb 48f
11:18am 6 7 mph 1009.9mb 47f
11:12am 7 8 mph 1009.8mb 47f
11:06am 8 9 mph 1009.8mb 47f
11:00am 9 9 mph 1009.7mb 47f
10:54am 8 9 mph 1009.9mb 47f
10:48am 8 9 mph 1009.9mb 47f
10:42am 8 9 mph 1010mb 47f
10:36am 6 8 mph 1010.1mb 47f
10:30am 7 8 mph 1010.1mb 47f
10:24am 7 8 mph 1010.1mb 46f
10:18am 7 8 mph 1010.2mb 46f
10:12am 6 8 mph 1010.1mb 46f
10:06am 6 8 mph 1010mb 46f
10:00am 7 8 mph 1010.1mb 46f
9:54am 6 7 mph 1010.3mb 46f
9:48am 6 8 mph 1010.3mb 46f
9:42am 7 10 mph 1010.3mb 46f
9:36am 9 10 mph 1010.2mb 46f
9:30am 8 10 mph 1010.2mb 46f
9:24am 6 9 mph 1010.3mb 46f
9:18am 6 9 mph 1010.5mb 46f
9:12am 8 9 mph 1010.3mb 46f
9:06am 5 7 mph 1010.3mb 46f
9:00am 6 9 mph 1010.2mb 46f
8:54am 7 9 mph 1010.2mb 46f
8:48am 8 9 mph 1010.3mb 46f
8:42am 7 9 mph 1010.3mb 46f
8:36am 7 9 mph 1010.4mb 46f
8:30am 6 7 mph 1010.4mb 46f
8:24am 5 9 mph 1010.4mb 46f
8:18am 7 9 mph 1010.3mb 46f
8:12am 6 11 mph 1010.1mb 46f
8:06am 9 13 mph 1010mb 46f
8:00am 8 10 mph 1010mb 46f
7:54am 6 8 mph 1010.1mb 46f
7:48am 8 10 mph 1010.1mb 46f
7:42am 8 9 mph 1009.8mb 46f
7:36am 8 9 mph 1009.9mb 46f
7:30am 6 8 mph 1009.8mb 46f
7:24am 6 8 mph 1009.7mb 46f
7:18am 7 9 mph 1009.8mb 46f
7:12am 7 9 mph 1009.7mb 46f
7:06am 7 8 mph 1009.8mb 46f
7:00am 6 8 mph 1009.8mb 46f
6:54am 7 9 mph 1009.7mb 46f
6:48am 7 8 mph 1009.6mb 46f
6:42am 7 8 mph 1009.6mb 46f
6:36am 3 5 mph 1009.7mb 46f
6:30am 1 5 mph 1009.7mb 46f
6:24am 6 7 mph 1009.7mb 46f
6:18am 6 7 mph 1009.6mb 46f
6:12am 6 7 mph 1009.5mb 46f
6:06am 5 6 mph 1009.5mb 46f
6:00am 3 5 mph 1009.5mb 46f
5:54am 3 5 mph 1009.5mb 46f
5:48am 3 5 mph 1009.4mb 46f
5:42am 5 6 mph 1009.3mb 46f
5:36am 3 5 mph 1009.2mb 47f
5:30am 3 6 mph 1009.1mb 47f
5:24am 3 8 mph 1008.9mb 47f
5:18am 7 9 mph 1008.8mb 47f
5:12am 7 8 mph 1008.8mb 47f
5:06am 6 6 mph 1008.8mb 47f
5:00am 3 7 mph 1009mb 46f
4:54am 2 9 mph 1009.1mb 46f
4:48am 7 9 mph 1009mb 46f
4:42am 3 5 mph 1008.9mb 46f
4:36am 2 3 mph 1009.1mb 46f
4:30am 2 5 mph 1009.2mb 46f
4:24am 5 7 mph 1009mb 46f
4:18am 6 8 mph 1008.9mb 46f
4:12am 3 6 mph 1009.1mb 46f
4:06am 5 6 mph 1009.1mb 46f
4:00am 3 3 mph 1009.1mb 45f
3:54am 2 3 mph 1009mb 45f
3:48am 1 2 mph 1008.9mb 45f
3:42am  -  1 mph 1009mb 45f
3:36am  -  3 mph 1009mb 45f
3:30am 3 3 mph 1009.1mb 45f
3:24am  -  2 mph 1009.1mb 44f
3:18am 2 2 mph 1009.1mb 44f
3:12am 1 2 mph 1009.1mb 45f
3:06am 2 3 mph 1009.2mb 45f
3:00am 2 3 mph 1009.2mb 46f
2:54am  -  2 mph 1009.2mb 45f
2:48am 1 5 mph 1009.2mb 46f
2:42am 3 6 mph 1009.2mb 46f
2:36am 3 5 mph 1009.3mb 46f
2:30am 3 5 mph 1009.4mb 46f
2:24am 3 6 mph 1009.4mb 46f
2:18am 5 6 mph 1009.6mb 46f
2:12am 5 5 mph 1009.6mb 46f
2:06am 3 7 mph 1009.7mb 46f
2:00am 6 8 mph 1009.6mb 46f
1:54am 6 7 mph 1009.7mb 47f
1:48am 6 8 mph 1009.6mb -
1:42am 7 8 mph 1009.6mb -
1:36am 7 9 mph 1009.5mb -
1:30am 8 8 mph 1009.6mb 46f
1:24am 6 7 mph 1009.6mb 46f
1:18am 5 6 mph 1009.7mb 46f
1:12am 3 6 mph 1009.8mb 46f
1:06am 3 3 mph 1009.9mb 46f
1:00am 1 5 mph 1009.9mb 46f
12:54am 3 5 mph 1009.8mb 46f
12:48am 5 6 mph 1009.7mb 46f
12:42am 5 7 mph 1009.8mb 46f
12:36am 5 7 mph 1009.9mb 46f
12:30am 5 7 mph 1009.9mb 46f
12:24am 6 10 mph 1009.8mb 46f
12:18am 9 13 mph 1009.9mb 46f
12:12am 8 10 mph 1009.7mb 47f
12:06am 9 11 mph 1009.5mb 47f
12:00am 9 11 mph 1009.7mb 47f
Mon 05/22 11:54pm 9 10 mph 1009.8mb 46f
11:48pm 9 11 mph 1009.9mb 46f
11:42pm 10 13 mph 1010mb 46f
11:36pm 11 14 mph 1010.1mb 47f
11:30pm 8 9 mph 1010.3mb 47f
11:24pm 8 10 mph 1010.4mb 47f
11:18pm 8 10 mph 1010.3mb 46f
11:12pm 7 8 mph 1010.2mb 46f
11:06pm 6 8 mph 1010.3mb 46f
11:00pm 5 7 mph 1010.1mb 46f
10:54pm 5 8 mph 1010.1mb 47f
10:48pm 6 8 mph 1010.1mb 47f
10:42pm 5 8 mph 1010.2mb 47f
10:36pm 5 7 mph 1010.3mb 47f
10:30pm 5 5 mph 1010.4mb 47f
10:24pm 5 7 mph 1010.4mb 47f
10:18pm 6 7 mph 1010.4mb 48f
10:12pm 3 6 mph 1010.4mb 48f
10:06pm 7 8 mph 1010.5mb 48f
10:00pm 6 7 mph 1010.4mb 49f
9:54pm 3 5 mph 1010.5mb 49f
9:48pm 3 3 mph 1010.6mb 49f
9:42pm 2 6 mph 1010.5mb 50f
9:36pm 3 3 mph 1010.8mb 50f
9:30pm 2 2 mph 1010.7mb 51f
9:24pm  -  1 mph 1010.6mb 51f
9:18pm  -  1 mph 1010.5mb 51f
9:12pm 1 2 mph 1010.3mb 51f
9:06pm 2 3 mph 1010.2mb 51f
9:00pm 1 2 mph 1010.1mb 51f
8:54pm 1 2 mph 1010.1mb 50f
8:48pm  -  2 mph 1010.1mb 50f
8:42pm  -  5 mph 1010mb 51f
8:36pm 5 6 mph 1009.9mb 51f
8:30pm 5 6 mph 1009.8mb 52f
8:24pm 2 3 mph 1009.8mb 52f
8:18pm 2 3 mph 1009.8mb 52f
8:12pm 2 3 mph 1009.9mb 52f
8:06pm 2 3 mph 1010mb 52f
8:00pm 5 5 mph 1009.9mb 52f
7:54pm 2 3 mph 1009.9mb 53f
7:48pm 3 5 mph 1010mb 53f
7:42pm 2 5 mph 1010.1mb 53f
7:36pm 3 7 mph 1010.2mb 53f
7:30pm 3 7 mph 1010.2mb 53f
7:24pm 2 8 mph 1010.1mb 53f
7:18pm 3 7 mph 1010.1mb 54f
7:12pm 6 10 mph 1010mb 54f
7:06pm 8 11 mph 1010mb 54f
7:00pm 5 9 mph 1010mb 55f
6:54pm 7 14 mph 1009.9mb 55f
6:48pm 9 13 mph 1010mb 55f
6:42pm 7 11 mph 1009.8mb 55f
6:36pm 7 11 mph 1009.9mb 55f
6:30pm 7 14 mph 1009.9mb 55f
6:24pm 9 17 mph 1009.9mb 55f
6:18pm 8 16 mph 1009.8mb 54f
6:12pm 10 15 mph 1009.7mb 54f
6:06pm 10 16 mph 1009.7mb 54f
6:00pm 10 15 mph 1009.7mb 54f
5:54pm 10 21 mph 1009.7mb 54f
5:48pm 14 21 mph 1009.6mb 54f
5:42pm 14 21 mph 1009.5mb 54f
5:36pm 13 20 mph 1009.4mb 55f
5:30pm 10 20 mph 1009.4mb 55f
5:24pm 13 23 mph 1009.4mb 55f
5:18pm 15 21 mph 1009.4mb 55f
5:12pm 13 23 mph 1009.4mb 55f
5:06pm 11 20 mph 1009.4mb 55f
5:00pm 14 22 mph 1009.5mb 55f
4:54pm 14 23 mph 1009.4mb 55f
4:48pm 16 22 mph 1009.5mb 54f
4:42pm 11 24 mph 1009.5mb 54f
4:36pm 13 24 mph 1009.4mb 54f
4:30pm 14 21 mph 1009.5mb 54f
4:24pm 14 23 mph 1009.5mb 54f
4:18pm 11 23 mph 1009.5mb 54f
4:12pm 16 23 mph 1009.4mb 53f
4:06pm 16 24 mph 1009.5mb 53f
4:00pm 16 23 mph 1009.4mb 53f
3:54pm 15 22 mph 1009.4mb 53f
3:48pm 14 24 mph 1009.4mb 53f
3:42pm 13 24 mph 1009.4mb 53f
3:36pm 10 23 mph 1009.4mb 52f
3:30pm 13 20 mph 1009.4mb 51f
3:24pm 11 18 mph 1009.5mb 51f
3:18pm 13 21 mph 1009.4mb 51f
3:12pm 16 22 mph 1009.4mb 50f
3:06pm 9 18 mph 1009.3mb 51f
3:00pm 13 23 mph 1009.3mb 50f
2:54pm 10 20 mph 1009.3mb 49f
2:48pm 14 18 mph 1009.3mb 49f
2:42pm 13 21 mph 1009.2mb 49f
2:36pm 15 22 mph 1009.2mb 49f
2:30pm 7 18 mph 1009.1mb 49f
2:24pm 11 17 mph 1009.1mb 49f
2:18pm 14 21 mph 1009.1mb 48f
2:12pm 10 20 mph 1009.1mb 47f
2:06pm 14 22 mph 1009.1mb 47f
2:00pm 13 18 mph 1009mb 47f